owner,sensor,date,latitude,longitude,vertical_datum,wind_speed,wind_to_direction,wind_speed_of_gust,qcFlag 
DISL,ioos:station:DISL:MBLA:1,2011-09-01T00:00:00Z,30.4367,-88.0117,14.2,9.17,113.2,-9999.0,'1111122,1111122,1111122' 
DISL,ioos:station:DISL:MBLA:1,2011-09-01T00:30:00Z,30.4367,-88.0117,14.2,9.9,121.3,-9999.0,'1111122,1111122,1111122' 
DISL,ioos:station:DISL:MBLA:1,2011-09-01T01:00:00Z,30.4367,-88.0117,14.2,8.39,110.5,-9999.0,'1111122,1111122,1111122' 
DISL,ioos:station:DISL:MBLA:1,2011-09-01T01:30:00Z,30.4367,-88.0117,14.2,7.2,103.6,-9999.0,'1111122,1111122,1111122' 
DISL,ioos:station:DISL:MBLA:1,2011-09-01T02:00:00Z,30.4367,-88.0117,14.2,7.17,91.2,-9999.0,'1111122,1111122,1111122' 
DISL,ioos:station:DISL:MBLA:1,2011-09-01T02:30:00Z,30.4367,-88.0117,14.2,6.66,84.7,-9999.0,'1111122,1111122,1111122' 
DISL,ioos:station:DISL:MBLA:1,2011-09-01T03:00:00Z,30.4367,-88.0117,14.2,5.67,85.8,-9999.0,'1111122,1111122,1111122' 
DISL,ioos:station:DISL:MBLA:1,2011-09-01T03:30:00Z,30.4367,-88.0117,14.2,5.75,93.9,-9999.0,'1111122,1111122,1111122' 
DISL,ioos:station:DISL:MBLA:1,2011-09-01T04:00:00Z,30.4367,-88.0117,14.2,5.01,92.4,-9999.0,'1111122,1111122,1111122' 
DISL,ioos:station:DISL:MBLA:1,2011-09-01T04:30:00Z,30.4367,-88.0117,14.2,5.53,96.6,-9999.0,'1111122,1111122,1111122' 
DISL,ioos:station:DISL:MBLA:1,2011-09-01T05:00:00Z,30.4367,-88.0117,14.2,4.96,68.76,-9999.0,'1111122,1111122,1111122' 
DISL,ioos:station:DISL:MBLA:1,2011-09-01T05:30:00Z,30.4367,-88.0117,14.2,6.06,65.29,-9999.0,'1111122,1111122,1111122' 
DISL,ioos:station:DISL:MBLA:1,2011-09-01T06:00:00Z,30.4367,-88.0117,14.2,5.77,55.14,-9999.0,'1111122,1111122,1111122' 
DISL,ioos:station:DISL:MBLA:1,2011-09-01T06:30:00Z,30.4367,-88.0117,14.2,5.41,64.18,-9999.0,'1111122,1111122,1111122' 
DISL,ioos:station:DISL:MBLA:1,2011-09-01T07:00:00Z,30.4367,-88.0117,14.2,6.9,59.66,-9999.0,'1111122,1111122,1111122' 
DISL,ioos:station:DISL:MBLA:1,2011-09-01T07:30:00Z,30.4367,-88.0117,14.2,7.26,53.45,-9999.0,'1111122,1111122,1111122' 
DISL,ioos:station:DISL:MBLA:1,2011-09-01T08:00:00Z,30.4367,-88.0117,14.2,7.16,49.19,-9999.0,'1111122,1111122,1111122' 
DISL,ioos:station:DISL:MBLA:1,2011-09-01T08:30:00Z,30.4367,-88.0117,14.2,5.98,77.9,-9999.0,'1111122,1111122,1111122' 
DISL,ioos:station:DISL:MBLA:1,2011-09-01T09:00:00Z,30.4367,-88.0117,14.2,6.98,77.6,-9999.0,'1111122,1111122,1111122' 
DISL,ioos:station:DISL:MBLA:1,2011-09-01T09:30:00Z,30.4367,-88.0117,14.2,7.09,62.18,-9999.0,'1111122,1111122,1111122' 
DISL,ioos:station:DISL:MBLA:1,2011-09-01T10:00:00Z,30.4367,-88.0117,14.2,8.36,63.04,-9999.0,'1111122,1111122,1111122' 
DISL,ioos:station:DISL:MBLA:1,2011-09-01T10:30:00Z,30.4367,-88.0117,14.2,8.49,64.19,-9999.0,'1111122,1111122,1111122' 
DISL,ioos:station:DISL:MBLA:1,2011-09-01T11:00:00Z,30.4367,-88.0117,14.2,9.13,62.39,-9999.0,'1111122,1111122,1111122' 
DISL,ioos:station:DISL:MBLA:1,2011-09-01T11:30:00Z,30.4367,-88.0117,14.2,12.65,97.4,-9999.0,'1111122,1111122,1111122' 
DISL,ioos:station:DISL:MBLA:1,2011-09-01T12:00:00Z,30.4367,-88.0117,14.2,10.19,98.2,-9999.0,'1111122,1111122,1111122' 
DISL,ioos:station:DISL:MBLA:1,2011-09-01T12:30:00Z,30.4367,-88.0117,14.2,7.54,82.7,-9999.0,'1111122,1111122,1111122' 
DISL,ioos:station:DISL:MBLA:1,2011-09-01T13:00:00Z,30.4367,-88.0117,14.2,7.94,79.5,-9999.0,'1111122,1111122,1111122' 
DISL,ioos:station:DISL:MBLA:1,2011-09-01T13:30:00Z,30.4367,-88.0117,14.2,7.01,70.2,-9999.0,'1111122,1111122,1111122' 
DISL,ioos:station:DISL:MBLA:1,2011-09-01T14:00:00Z,30.4367,-88.0117,14.2,8.14,64.91,-9999.0,'1111122,1111122,1111122' 
DISL,ioos:station:DISL:MBLA:1,2011-09-01T14:30:00Z,30.4367,-88.0117,14.2,7.1,75.1,-9999.0,'1111122,1111122,1111122' 
DISL,ioos:station:DISL:MBLA:1,2011-09-01T15:00:00Z,30.4367,-88.0117,14.2,7.18,103.4,-9999.0,'1111122,1111122,1111122' 
DISL,ioos:station:DISL:MBLA:1,2011-09-01T15:30:00Z,30.4367,-88.0117,14.2,7.25,69.0,-9999.0,'1111122,1111122,1111122' 
DISL,ioos:station:DISL:MBLA:1,2011-09-01T16:00:00Z,30.4367,-88.0117,14.2,7.25,81.8,-9999.0,'1111122,1111122,1111122' 
DISL,ioos:station:DISL:MBLA:1,2011-09-01T16:30:00Z,30.4367,-88.0117,14.2,5.98,89.9,-9999.0,'1111122,1111122,1111122' 
DISL,ioos:station:DISL:MBLA:1,2011-09-01T17:00:00Z,30.4367,-88.0117,14.2,7.12,81.3,-9999.0,'1111122,1111122,1111122' 
DISL,ioos:station:DISL:MBLA:1,2011-09-01T17:30:00Z,30.4367,-88.0117,14.2,6.39,78.2,-9999.0,'1111122,1111122,1111122' 
DISL,ioos:station:DISL:MBLA:1,2011-09-01T18:00:00Z,30.4367,-88.0117,14.2,5.52,81.0,-9999.0,'1111122,1111122,1111122' 
DISL,ioos:station:DISL:MBLA:1,2011-09-01T18:30:00Z,30.4367,-88.0117,14.2,6.02,82.0,-9999.0,'1111122,1111122,1111122' 
DISL,ioos:station:DISL:MBLA:1,2011-09-01T19:00:00Z,30.4367,-88.0117,14.2,10.24,132.7,-9999.0,'1111122,1111122,1111122' 
DISL,ioos:station:DISL:MBLA:1,2011-09-01T19:30:00Z,30.4367,-88.0117,14.2,8.98,137.7,-9999.0,'1111122,1111122,1111122' 
DISL,ioos:station:DISL:MBLA:1,2011-09-01T20:00:00Z,30.4367,-88.0117,14.2,8.29,125.2,-9999.0,'1111122,1111122,1111122' 
DISL,ioos:station:DISL:MBLA:1,2011-09-01T20:30:00Z,30.4367,-88.0117,14.2,7.82,132.0,-9999.0,'1111122,1111122,1111122' 
DISL,ioos:station:DISL:MBLA:1,2011-09-01T21:00:00Z,30.4367,-88.0117,14.2,11.71,126.7,-9999.0,'1111122,1111122,1111122' 
DISL,ioos:station:DISL:MBLA:1,2011-09-01T21:30:00Z,30.4367,-88.0117,14.2,12.63,125.2,-9999.0,'1111122,1111122,1111122' 
DISL,ioos:station:DISL:MBLA:1,2011-09-01T22:00:00Z,30.4367,-88.0117,14.2,12.88,122.2,-9999.0,'1111122,1111122,1111122' 
DISL,ioos:station:DISL:MBLA:1,2011-09-01T22:30:00Z,30.4367,-88.0117,14.2,13.11,125.2,-9999.0,'1111122,1111122,1111122' 
DISL,ioos:station:DISL:MBLA:1,2011-09-01T23:00:00Z,30.4367,-88.0117,14.2,10.51,114.6,-9999.0,'1111122,1111122,1111122' 
DISL,ioos:station:DISL:MBLA:1,2011-09-01T23:30:00Z,30.4367,-88.0117,14.2,8.77,123.9,-9999.0,'1111122,1111122,1111122' 
DISL,ioos:station:DISL:MBLA:1,2011-09-02T00:00:00Z,30.4367,-88.0117,14.2,9.61,116.3,-9999.0,'1111122,1111122,1111122' 
DISL,ioos:station:DISL:MBLA:1,2011-09-02T00:30:00Z,30.4367,-88.0117,14.2,6.51,105.5,-9999.0,'1111122,1111122,1111122' 
DISL,ioos:station:DISL:MBLA:1,2011-09-02T01:00:00Z,30.4367,-88.0117,14.2,5.8,102.4,-9999.0,'1111122,1111122,1111122' 
DISL,ioos:station:DISL:MBLA:1,2011-09-02T01:30:00Z,30.4367,-88.0117,14.2,5.72,102.8,-9999.0,'1111122,1111122,1111122' 
DISL,ioos:station:DISL:MBLA:1,2011-09-02T02:00:00Z,30.4367,-88.0117,14.2,5.16,84.6,-9999.0,'1111122,1111122,1111122' 
DISL,ioos:station:DISL:MBLA:1,2011-09-02T02:30:00Z,30.4367,-88.0117,14.2,5.1,72.8,-9999.0,'1111122,1111122,1111122' 
DISL,ioos:station:DISL:MBLA:1,2011-09-02T03:00:00Z,30.4367,-88.0117,14.2,4.89,89.8,-9999.0,'1111122,1111122,1111122' 
DISL,ioos:station:DISL:MBLA:1,2011-09-02T03:30:00Z,30.4367,-88.0117,14.2,5.42,79.6,-9999.0,'1111122,1111122,1111122' 
DISL,ioos:station:DISL:MBLA:1,2011-09-02T04:00:00Z,30.4367,-88.0117,14.2,5.53,82.9,-9999.0,'1111122,1111122,1111122' 
DISL,ioos:station:DISL:MBLA:1,2011-09-02T04:30:00Z,30.4367,-88.0117,14.2,5.04,84.5,-9999.0,'1111122,1111122,1111122' 
DISL,ioos:station:DISL:MBLA:1,2011-09-02T05:00:00Z,30.4367,-88.0117,14.2,5.21,87.4,-9999.0,'1111122,1111122,1111122' 
DISL,ioos:station:DISL:MBLA:1,2011-09-02T05:30:00Z,30.4367,-88.0117,14.2,5.95,97.7,-9999.0,'1111122,1111122,1111122' 
DISL,ioos:station:DISL:MBLA:1,2011-09-02T06:00:00Z,30.4367,-88.0117,14.2,5.94,78.3,-9999.0,'1111122,1111122,1111122' 
DISL,ioos:station:DISL:MBLA:1,2011-09-02T06:30:00Z,30.4367,-88.0117,14.2,5.97,87.3,-9999.0,'1111122,1111122,1111122' 
DISL,ioos:station:DISL:MBLA:1,2011-09-02T07:00:00Z,30.4367,-88.0117,14.2,6.73,93.6,-9999.0,'1111122,1111122,1111122' 
DISL,ioos:station:DISL:MBLA:1,2011-09-02T07:30:00Z,30.4367,-88.0117,14.2,6.43,97.3,-9999.0,'1111122,1111122,1111122' 
DISL,ioos:station:DISL:MBLA:1,2011-09-02T08:00:00Z,30.4367,-88.0117,14.2,6.15,96.6,-9999.0,'1111122,1111122,1111122' 
DISL,ioos:station:DISL:MBLA:1,2011-09-02T08:30:00Z,30.4367,-88.0117,14.2,5.28,67.12,-9999.0,'1111122,1111122,1111122' 
DISL,ioos:station:DISL:MBLA:1,2011-09-02T09:00:00Z,30.4367,-88.0117,14.2,5.24,66.52,-9999.0,'1111122,1111122,1111122' 
DISL,ioos:station:DISL:MBLA:1,2011-09-02T09:30:00Z,30.4367,-88.0117,14.2,6.84,49.79,-9999.0,'1111122,1111122,1111122' 
DISL,ioos:station:DISL:MBLA:1,2011-09-02T10:00:00Z,30.4367,-88.0117,14.2,7.05,52.2,-9999.0,'1111122,1111122,1111122' 
DISL,ioos:station:DISL:MBLA:1,2011-09-02T10:30:00Z,30.4367,-88.0117,14.2,6.58,49.06,-9999.0,'1111122,1111122,1111122' 
DISL,ioos:station:DISL:MBLA:1,2011-09-02T11:00:00Z,30.4367,-88.0117,14.2,7.87,52.98,-9999.0,'1111122,1111122,1111122' 
DISL,ioos:station:DISL:MBLA:1,2011-09-02T11:30:00Z,30.4367,-88.0117,14.2,8.45,54.72,-9999.0,'1111122,1111122,1111122' 
DISL,ioos:station:DISL:MBLA:1,2011-09-02T12:00:00Z,30.4367,-88.0117,14.2,8.96,56.18,-9999.0,'1111122,1111122,1111122' 
DISL,ioos:station:DISL:MBLA:1,2011-09-02T12:30:00Z,30.4367,-88.0117,14.2,10.6,64.68,-9999.0,'1111122,1111122,1111122' 
DISL,ioos:station:DISL:MBLA:1,2011-09-02T13:00:00Z,30.4367,-88.0117,14.2,8.01,94.2,-9999.0,'1111122,1111122,1111122' 
DISL,ioos:station:DISL:MBLA:1,2011-09-02T13:30:00Z,30.4367,-88.0117,14.2,8.91,74.7,-9999.0,'1111122,1111122,1111122' 
DISL,ioos:station:DISL:MBLA:1,2011-09-02T14:00:00Z,30.4367,-88.0117,14.2,9.21,69.56,-9999.0,'1111122,1111122,1111122' 
DISL,ioos:station:DISL:MBLA:1,2011-09-02T14:30:00Z,30.4367,-88.0117,14.2,10.12,159.3,-9999.0,'1111122,1111122,1111122' 
DISL,ioos:station:DISL:MBLA:1,2011-09-02T15:00:00Z,30.4367,-88.0117,14.2,9.82,94.5,-9999.0,'1111122,1111122,1111122' 
DISL,ioos:station:DISL:MBLA:1,2011-09-02T15:30:00Z,30.4367,-88.0117,14.2,8.57,106.5,-9999.0,'1111122,1111122,1111122' 
DISL,ioos:station:DISL:MBLA:1,2011-09-02T16:00:00Z,30.4367,-88.0117,14.2,9.39,85.0,-9999.0,'1111122,1111122,1111122' 
DISL,ioos:station:DISL:MBLA:1,2011-09-02T16:30:00Z,30.4367,-88.0117,14.2,9.54,101.4,-9999.0,'1111122,1111122,1111122' 
DISL,ioos:station:DISL:MBLA:1,2011-09-02T17:00:00Z,30.4367,-88.0117,14.2,10.03,121.8,-9999.0,'1111122,1111122,1111122' 
DISL,ioos:station:DISL:MBLA:1,2011-09-02T17:30:00Z,30.4367,-88.0117,14.2,14.22,109.6,-9999.0,'1111122,1111122,1111122' 
DISL,ioos:station:DISL:MBLA:1,2011-09-02T18:00:00Z,30.4367,-88.0117,14.2,12.08,101.7,-9999.0,'1111122,1111122,1111122' 
DISL,ioos:station:DISL:MBLA:1,2011-09-02T18:30:00Z,30.4367,-88.0117,14.2,10.52,92.3,-9999.0,'1111122,1111122,1111122' 
DISL,ioos:station:DISL:MBLA:1,2011-09-02T19:00:00Z,30.4367,-88.0117,14.2,9.98,84.2,-9999.0,'1111122,1111122,1111122' 
DISL,ioos:station:DISL:MBLA:1,2011-09-02T19:30:00Z,30.4367,-88.0117,14.2,10.74,86.8,-9999.0,'1111122,1111122,1111122' 
DISL,ioos:station:DISL:MBLA:1,2011-09-02T20:00:00Z,30.4367,-88.0117,14.2,9.02,87.9,-9999.0,'1111122,1111122,1111122' 
DISL,ioos:station:DISL:MBLA:1,2011-09-02T20:30:00Z,30.4367,-88.0117,14.2,8.29,83.4,-9999.0,'1111122,1111122,1111122' 
DISL,ioos:station:DISL:MBLA:1,2011-09-02T21:00:00Z,30.4367,-88.0117,14.2,9.49,75.0,-9999.0,'1111122,1111122,1111122' 
DISL,ioos:station:DISL:MBLA:1,2011-09-02T21:30:00Z,30.4367,-88.0117,14.2,9.72,71.6,-9999.0,'1111122,1111122,1111122' 
DISL,ioos:station:DISL:MBLA:1,2011-09-02T22:00:00Z,30.4367,-88.0117,14.2,10.06,64.92,-9999.0,'1111122,1111122,1111122' 
DISL,ioos:station:DISL:MBLA:1,2011-09-02T22:30:00Z,30.4367,-88.0117,14.2,12.03,88.7,-9999.0,'1111122,1111122,1111122' 
DISL,ioos:station:DISL:MBLA:1,2011-09-02T23:00:00Z,30.4367,-88.0117,14.2,9.25,71.8,-9999.0,'1111122,1111122,1111122' 
DISL,ioos:station:DISL:MBLA:1,2011-09-02T23:30:00Z,30.4367,-88.0117,14.2,7.47,69.28,-9999.0,'1111122,1111122,1111122' 
DISL,ioos:station:DISL:MBLA:1,2011-09-03T00:00:00Z,30.4367,-88.0117,14.2,6.82,56.82,-9999.0,'1111122,1111122,1111122' 
DISL,ioos:station:DISL:MBLA:1,2011-09-03T00:30:00Z,30.4367,-88.0117,14.2,8.95,67.88,-9999.0,'1111122,1111122,1111122' 
DISL,ioos:station:DISL:MBLA:1,2011-09-03T01:00:00Z,30.4367,-88.0117,14.2,8.5,64.52,-9999.0,'1111122,1111122,1111122' 
DISL,ioos:station:DISL:MBLA:1,2011-09-03T01:30:00Z,30.4367,-88.0117,14.2,8.49,66.09,-9999.0,'1111122,1111122,1111122' 
DISL,ioos:station:DISL:MBLA:1,2011-09-03T02:00:00Z,30.4367,-88.0117,14.2,10.69,113.8,-9999.0,'1111122,1111122,1111122' 
DISL,ioos:station:DISL:MBLA:1,2011-09-03T02:30:00Z,30.4367,-88.0117,14.2,14.93,118.4,-9999.0,'1111122,1111122,1111122' 
DISL,ioos:station:DISL:MBLA:1,2011-09-03T03:00:00Z,30.4367,-88.0117,14.2,16.14,138.3,-9999.0,'1111122,1111122,1111122' 
DISL,ioos:station:DISL:MBLA:1,2011-09-03T03:30:00Z,30.4367,-88.0117,14.2,12.26,128.7,-9999.0,'1111122,1111122,1111122' 
DISL,ioos:station:DISL:MBLA:1,2011-09-03T04:00:00Z,30.4367,-88.0117,14.2,13.31,119.5,-9999.0,'1111122,1111122,1111122' 
DISL,ioos:station:DISL:MBLA:1,2011-09-03T04:30:00Z,30.4367,-88.0117,14.2,9.43,101.1,-9999.0,'1111122,1111122,1111122' 
DISL,ioos:station:DISL:MBLA:1,2011-09-03T05:00:00Z,30.4367,-88.0117,14.2,10.43,96.5,-9999.0,'1111122,1111122,1111122' 
DISL,ioos:station:DISL:MBLA:1,2011-09-03T05:30:00Z,30.4367,-88.0117,14.2,9.12,99.4,-9999.0,'1111122,1111122,1111122' 
DISL,ioos:station:DISL:MBLA:1,2011-09-03T06:00:00Z,30.4367,-88.0117,14.2,8.18,94.9,-9999.0,'1111122,1111122,1111122' 
DISL,ioos:station:DISL:MBLA:1,2011-09-03T06:30:00Z,30.4367,-88.0117,14.2,7.09,87.2,-9999.0,'1111122,1111122,1111122' 
DISL,ioos:station:DISL:MBLA:1,2011-09-03T07:00:00Z,30.4367,-88.0117,14.2,7.88,89.4,-9999.0,'1111122,1111122,1111122' 
DISL,ioos:station:DISL:MBLA:1,2011-09-03T07:30:00Z,30.4367,-88.0117,14.2,9.67,120.8,-9999.0,'1111122,1111122,1111122' 
DISL,ioos:station:DISL:MBLA:1,2011-09-03T08:00:00Z,30.4367,-88.0117,14.2,10.93,115.6,-9999.0,'1111122,1111122,1111122' 
DISL,ioos:station:DISL:MBLA:1,2011-09-03T08:30:00Z,30.4367,-88.0117,14.2,13.15,107.4,-9999.0,'1111122,1111122,1111122' 
DISL,ioos:station:DISL:MBLA:1,2011-09-03T09:00:00Z,30.4367,-88.0117,14.2,12.97,102.8,-9999.0,'1111122,1111122,1111122' 
DISL,ioos:station:DISL:MBLA:1,2011-09-03T09:30:00Z,30.4367,-88.0117,14.2,10.55,124.3,-9999.0,'1111122,1111122,1111122' 
DISL,ioos:station:DISL:MBLA:1,2011-09-03T10:00:00Z,30.4367,-88.0117,14.2,9.77,95.7,-9999.0,'1111122,1111122,1111122' 
DISL,ioos:station:DISL:MBLA:1,2011-09-03T10:30:00Z,30.4367,-88.0117,14.2,10.44,84.6,-9999.0,'1111122,1111122,1111122' 
DISL,ioos:station:DISL:MBLA:1,2011-09-03T11:00:00Z,30.4367,-88.0117,14.2,11.12,78.4,-9999.0,'1111122,1111122,1111122' 
DISL,ioos:station:DISL:MBLA:1,2011-09-03T11:30:00Z,30.4367,-88.0117,14.2,11.41,84.1,-9999.0,'1111122,1111122,1111122' 
DISL,ioos:station:DISL:MBLA:1,2011-09-03T12:00:00Z,30.4367,-88.0117,14.2,11.67,94.1,-9999.0,'1111122,1111122,1111122' 
DISL,ioos:station:DISL:MBLA:1,2011-09-03T12:30:00Z,30.4367,-88.0117,14.2,12.03,78.7,-9999.0,'1111122,1111122,1111122' 
DISL,ioos:station:DISL:MBLA:1,2011-09-03T13:00:00Z,30.4367,-88.0117,14.2,11.05,70.6,-9999.0,'1111122,1111122,1111122' 
DISL,ioos:station:DISL:MBLA:1,2011-09-03T13:30:00Z,30.4367,-88.0117,14.2,15.52,128.3,-9999.0,'1111122,1111122,1111122' 
DISL,ioos:station:DISL:MBLA:1,2011-09-03T14:00:00Z,30.4367,-88.0117,14.2,14.65,106.4,-9999.0,'1111122,1111122,1111122' 
DISL,ioos:station:DISL:MBLA:1,2011-09-03T14:30:00Z,30.4367,-88.0117,14.2,12.43,98.2,-9999.0,'1111122,1111122,1111122' 
DISL,ioos:station:DISL:MBLA:1,2011-09-03T15:00:00Z,30.4367,-88.0117,14.2,12.68,93.1,-9999.0,'1111122,1111122,1111122' 
DISL,ioos:station:DISL:MBLA:1,2011-09-03T15:30:00Z,30.4367,-88.0117,14.2,11.3,91.6,-9999.0,'1111122,1111122,1111122' 
DISL,ioos:station:DISL:MBLA:1,2011-09-03T16:00:00Z,30.4367,-88.0117,14.2,10.16,135.0,-9999.0,'1111122,1111122,1111122' 
DISL,ioos:station:DISL:MBLA:1,2011-09-03T16:30:00Z,30.4367,-88.0117,14.2,13.06,101.1,-9999.0,'1111122,1111122,1111122' 
DISL,ioos:station:DISL:MBLA:1,2011-09-03T17:00:00Z,30.4367,-88.0117,14.2,15.28,98.4,-9999.0,'1111122,1111122,1111122' 
DISL,ioos:station:DISL:MBLA:1,2011-09-03T17:30:00Z,30.4367,-88.0117,14.2,13.37,97.2,-9999.0,'1111122,1111122,1111122' 
DISL,ioos:station:DISL:MBLA:1,2011-09-03T18:00:00Z,30.4367,-88.0117,14.2,13.29,97.8,-9999.0,'1111122,1111122,1111122' 
DISL,ioos:station:DISL:MBLA:1,2011-09-03T18:30:00Z,30.4367,-88.0117,14.2,15.86,105.9,-9999.0,'1111122,1111122,1111122' 
DISL,ioos:station:DISL:MBLA:1,2011-09-03T19:00:00Z,30.4367,-88.0117,14.2,15.94,107.3,-9999.0,'1111122,1111122,1111122' 
DISL,ioos:station:DISL:MBLA:1,2011-09-03T19:30:00Z,30.4367,-88.0117,14.2,15.76,97.9,-9999.0,'1111122,1111122,1111122' 
DISL,ioos:station:DISL:MBLA:1,2011-09-03T20:00:00Z,30.4367,-88.0117,14.2,16.06,98.3,-9999.0,'1111122,1111122,1111122' 
DISL,ioos:station:DISL:MBLA:1,2011-09-03T20:30:00Z,30.4367,-88.0117,14.2,15.81,103.2,-9999.0,'1111122,1111122,1111122' 
DISL,ioos:station:DISL:MBLA:1,2011-09-03T21:00:00Z,30.4367,-88.0117,14.2,18.27,113.9,-9999.0,'1111122,1111122,1111122' 
DISL,ioos:station:DISL:MBLA:1,2011-09-03T21:30:00Z,30.4367,-88.0117,14.2,15.74,104.0,-9999.0,'1111122,1111122,1111122' 
DISL,ioos:station:DISL:MBLA:1,2011-09-03T22:00:00Z,30.4367,-88.0117,14.2,16.21,104.9,-9999.0,'1111122,1111122,1111122' 
DISL,ioos:station:DISL:MBLA:1,2011-09-03T22:30:00Z,30.4367,-88.0117,14.2,19.56,109.5,-9999.0,'1111122,1111122,1111122' 
DISL,ioos:station:DISL:MBLA:1,2011-09-03T23:00:00Z,30.4367,-88.0117,14.2,16.49,109.0,-9999.0,'1111122,1111122,1111122' 
DISL,ioos:station:DISL:MBLA:1,2011-09-03T23:30:00Z,30.4367,-88.0117,14.2,20.18,109.5,-9999.0,'1111122,1111122,1111122' 
DISL,ioos:station:DISL:MBLA:1,2011-09-04T00:00:00Z,30.4367,-88.0117,14.2,16.34,97.3,-9999.0,'1111122,1111122,1111122' 
DISL,ioos:station:DISL:MBLA:1,2011-09-04T00:30:00Z,30.4367,-88.0117,14.2,17.35,118.1,-9999.0,'1111122,1111122,1111122' 
DISL,ioos:station:DISL:MBLA:1,2011-09-04T01:00:00Z,30.4367,-88.0117,14.2,19.12,121.0,-9999.0,'1111122,1111122,1111122' 
DISL,ioos:station:DISL:MBLA:1,2011-09-04T01:30:00Z,30.4367,-88.0117,14.2,18.05,115.1,-9999.0,'1111122,1111122,1111122' 
DISL,ioos:station:DISL:MBLA:1,2011-09-04T02:00:00Z,30.4367,-88.0117,14.2,15.98,107.5,-9999.0,'1111122,1111122,1111122' 
DISL,ioos:station:DISL:MBLA:1,2011-09-04T02:30:00Z,30.4367,-88.0117,14.2,17.48,121.7,-9999.0,'1111122,1111122,1111122' 
DISL,ioos:station:DISL:MBLA:1,2011-09-04T03:00:00Z,30.4367,-88.0117,14.2,17.35,111.4,-9999.0,'1111122,1111122,1111122' 
DISL,ioos:station:DISL:MBLA:1,2011-09-04T03:30:00Z,30.4367,-88.0117,14.2,14.69,109.8,-9999.0,'1111122,1111122,1111122' 
DISL,ioos:station:DISL:MBLA:1,2011-09-04T04:00:00Z,30.4367,-88.0117,14.2,14.94,116.0,-9999.0,'1111122,1111122,1111122' 
DISL,ioos:station:DISL:MBLA:1,2011-09-04T04:30:00Z,30.4367,-88.0117,14.2,13.97,109.0,-9999.0,'1111122,1111122,1111122' 
DISL,ioos:station:DISL:MBLA:1,2011-09-04T05:00:00Z,30.4367,-88.0117,14.2,14.99,112.9,-9999.0,'1111122,1111122,1111122' 
DISL,ioos:station:DISL:MBLA:1,2011-09-04T05:30:00Z,30.4367,-88.0117,14.2,15.5,119.0,-9999.0,'1111122,1111122,1111122' 
DISL,ioos:station:DISL:MBLA:1,2011-09-04T06:00:00Z,30.4367,-88.0117,14.2,15.98,115.0,-9999.0,'1111122,1111122,1111122' 
DISL,ioos:station:DISL:MBLA:1,2011-09-04T06:30:00Z,30.4367,-88.0117,14.2,17.16,122.5,-9999.0,'1111122,1111122,1111122' 
DISL,ioos:station:DISL:MBLA:1,2011-09-04T07:00:00Z,30.4367,-88.0117,14.2,15.48,129.1,-9999.0,'1111122,1111122,1111122' 
DISL,ioos:station:DISL:MBLA:1,2011-09-04T07:30:00Z,30.4367,-88.0117,14.2,15.37,131.2,-9999.0,'1111122,1111122,1111122' 
DISL,ioos:station:DISL:MBLA:1,2011-09-04T08:00:00Z,30.4367,-88.0117,14.2,13.7,127.7,-9999.0,'1111122,1111122,1111122' 
DISL,ioos:station:DISL:MBLA:1,2011-09-04T08:30:00Z,30.4367,-88.0117,14.2,14.09,134.5,-9999.0,'1111122,1111122,1111122' 
DISL,ioos:station:DISL:MBLA:1,2011-09-04T09:00:00Z,30.4367,-88.0117,14.2,12.68,150.0,-9999.0,'1111122,1111122,1111122' 
DISL,ioos:station:DISL:MBLA:1,2011-09-04T09:30:00Z,30.4367,-88.0117,14.2,11.9,159.7,-9999.0,'1111122,1111122,1111122' 
DISL,ioos:station:DISL:MBLA:1,2011-09-04T10:00:00Z,30.4367,-88.0117,14.2,10.6,150.4,-9999.0,'1111122,1111122,1111122' 
DISL,ioos:station:DISL:MBLA:1,2011-09-04T10:30:00Z,30.4367,-88.0117,14.2,11.95,145.8,-9999.0,'1111122,1111122,1111122' 
DISL,ioos:station:DISL:MBLA:1,2011-09-04T11:00:00Z,30.4367,-88.0117,14.2,13.0,150.8,-9999.0,'1111122,1111122,1111122' 
DISL,ioos:station:DISL:MBLA:1,2011-09-04T11:30:00Z,30.4367,-88.0117,14.2,13.97,146.9,-9999.0,'1111122,1111122,1111122' 
DISL,ioos:station:DISL:MBLA:1,2011-09-04T12:00:00Z,30.4367,-88.0117,14.2,12.85,147.1,-9999.0,'1111122,1111122,1111122' 
DISL,ioos:station:DISL:MBLA:1,2011-09-04T12:30:00Z,30.4367,-88.0117,14.2,12.78,137.6,-9999.0,'1111122,1111122,1111122' 
DISL,ioos:station:DISL:MBLA:1,2011-09-04T13:00:00Z,30.4367,-88.0117,14.2,13.12,124.9,-9999.0,'1111122,1111122,1111122' 
DISL,ioos:station:DISL:MBLA:1,2011-09-04T13:30:00Z,30.4367,-88.0117,14.2,11.97,122.2,-9999.0,'1111122,1111122,1111122' 
DISL,ioos:station:DISL:MBLA:1,2011-09-04T14:00:00Z,30.4367,-88.0117,14.2,12.31,127.3,-9999.0,'1111122,1111122,1111122' 
DISL,ioos:station:DISL:MBLA:1,2011-09-04T14:30:00Z,30.4367,-88.0117,14.2,11.54,119.5,-9999.0,'1111122,1111122,1111122' 
DISL,ioos:station:DISL:MBLA:1,2011-09-04T15:00:00Z,30.4367,-88.0117,14.2,10.85,129.3,-9999.0,'1111122,1111122,1111122' 
DISL,ioos:station:DISL:MBLA:1,2011-09-04T15:30:00Z,30.4367,-88.0117,14.2,11.74,133.6,-9999.0,'1111122,1111122,1111122' 
DISL,ioos:station:DISL:MBLA:1,2011-09-04T16:00:00Z,30.4367,-88.0117,14.2,12.22,120.9,-9999.0,'1111122,1111122,1111122' 
DISL,ioos:station:DISL:MBLA:1,2011-09-04T16:30:00Z,30.4367,-88.0117,14.2,13.83,129.0,-9999.0,'1111122,1111122,1111122' 
DISL,ioos:station:DISL:MBLA:1,2011-09-04T17:00:00Z,30.4367,-88.0117,14.2,12.81,137.4,-9999.0,'1111122,1111122,1111122' 
DISL,ioos:station:DISL:MBLA:1,2011-09-04T17:30:00Z,30.4367,-88.0117,14.2,12.15,138.1,-9999.0,'1111122,1111122,1111122' 
DISL,ioos:station:DISL:MBLA:1,2011-09-04T18:00:00Z,30.4367,-88.0117,14.2,14.36,131.0,-9999.0,'1111122,1111122,1111122' 
DISL,ioos:station:DISL:MBLA:1,2011-09-04T18:30:00Z,30.4367,-88.0117,14.2,14.2,132.8,-9999.0,'1111122,1111122,1111122' 
DISL,ioos:station:DISL:MBLA:1,2011-09-04T19:00:00Z,30.4367,-88.0117,14.2,14.19,135.3,-9999.0,'1111122,1111122,1111122' 
DISL,ioos:station:DISL:MBLA:1,2011-09-04T19:30:00Z,30.4367,-88.0117,14.2,12.78,128.7,-9999.0,'1111122,1111122,1111122' 
DISL,ioos:station:DISL:MBLA:1,2011-09-04T20:00:00Z,30.4367,-88.0117,14.2,10.62,131.0,-9999.0,'1111122,1111122,1111122' 
DISL,ioos:station:DISL:MBLA:1,2011-09-04T20:30:00Z,30.4367,-88.0117,14.2,13.61,123.9,-9999.0,'1111122,1111122,1111122' 
DISL,ioos:station:DISL:MBLA:1,2011-09-04T21:00:00Z,30.4367,-88.0117,14.2,10.15,139.2,-9999.0,'1111122,1111122,1111122' 
DISL,ioos:station:DISL:MBLA:1,2011-09-04T21:30:00Z,30.4367,-88.0117,14.2,8.98,151.6,-9999.0,'1111122,1111122,1111122' 
DISL,ioos:station:DISL:MBLA:1,2011-09-04T22:00:00Z,30.4367,-88.0117,14.2,8.75,144.1,-9999.0,'1111122,1111122,1111122' 
DISL,ioos:station:DISL:MBLA:1,2011-09-04T22:30:00Z,30.4367,-88.0117,14.2,12.17,128.7,-9999.0,'1111122,1111122,1111122' 
DISL,ioos:station:DISL:MBLA:1,2011-09-04T23:00:00Z,30.4367,-88.0117,14.2,10.48,132.5,-9999.0,'1111122,1111122,1111122' 
DISL,ioos:station:DISL:MBLA:1,2011-09-04T23:30:00Z,30.4367,-88.0117,14.2,11.61,148.9,-9999.0,'1111122,1111122,1111122' 
DISL,ioos:station:DISL:MBLA:1,2011-09-05T00:00:00Z,30.4367,-88.0117,14.2,10.86,146.3,-9999.0,'1111122,1111122,1111122' 
DISL,ioos:station:DISL:MBLA:1,2011-09-05T00:30:00Z,30.4367,-88.0117,14.2,13.05,127.8,-9999.0,'1111122,1111122,1111122' 
DISL,ioos:station:DISL:MBLA:1,2011-09-05T01:00:00Z,30.4367,-88.0117,14.2,13.14,122.4,-9999.0,'1111122,1111122,1111122' 
DISL,ioos:station:DISL:MBLA:1,2011-09-05T01:30:00Z,30.4367,-88.0117,14.2,11.34,130.1,-9999.0,'1111122,1111122,1111122' 
DISL,ioos:station:DISL:MBLA:1,2011-09-05T02:00:00Z,30.4367,-88.0117,14.2,11.19,146.0,-9999.0,'1111122,1111122,1111122' 
DISL,ioos:station:DISL:MBLA:1,2011-09-05T02:30:00Z,30.4367,-88.0117,14.2,11.06,146.2,-9999.0,'1111122,1111122,1111122' 
DISL,ioos:station:DISL:MBLA:1,2011-09-05T03:00:00Z,30.4367,-88.0117,14.2,10.73,148.0,-9999.0,'1111122,1111122,1111122' 
DISL,ioos:station:DISL:MBLA:1,2011-09-05T03:30:00Z,30.4367,-88.0117,14.2,9.87,139.0,-9999.0,'1111122,1111122,1111122' 